Regional Weather Roundup
Issued by NWS Albany, NY

Home | Current Version | Previous Version | Text Only | Print | Product List | Glossary On
Versions: 1 2 3 4 5 6 7 8 9 10 11 12 13 14 15 16 17 18 19 20 21 22 23 24 25 26 27 28 29 30 31 32 33 34 35 36 37 38 39 40 41 42 43 44 45 46 47 48 49 50
164
ASUS41 KALY 251510
RWRALY

NEW YORK STATE HOURLY WEATHER ROUNDUP
NATIONAL WEATHER SERVICE ALBANY NY
1100 AM EDT WED MAY 25 2016

NOTE: "FAIR" INDICATES FEW OR NO CLOUDS BELOW 12,000 FEET WITH NO
SIGNIFICANT WEATHER AND/OR NO OBSTRUCTIONS TO VISIBILITY.

NYZ032-033-038>043-046>054-057>066-NYZ062>081-082-084-251600-
EAST


CITY           SKY/WX    TMP DP  RH WIND       PRES   REMARKS
ALBANY         MOSUNNY   75  52  44 S7        30.03F
GLENS FALLS    SUNNY     71  55  56 S7        30.02S
POUGHKEEPSIE   SUNNY     76  52  43 MISG      30.05F
NEWBURGH       SUNNY     73  54  49 SW9       30.08S
MONTGOMERY     SUNNY     80  52  37 W9        30.05F
WHITE PLAINS   SUNNY     77  50  38 W10       30.06S
ISLIP          MOSUNNY   80  51  36 NW5       30.05S
NEW YORK CITY  MOSUNNY   79  51  37 NW10      30.06F
CENTRAL PARK   SUNNY     78  46  32 W7        30.10S
$$

NYZ005>009-017-018-044>046-055-056-251600-
CENTRAL


CITY           SKY/WX    TMP DP  RH WIND       PRES   REMARKS
FULTON         SUNNY     81  51  35 SW5       30.02F
SYRACUSE       MOSUNNY   80  47  31 W8        30.01F
ROME           SUNNY     74  46  36 SW10      30.04F
ELMIRA         SUNNY     79  48  33 SW9       30.07F
BINGHAMTON     SUNNY     73  47  39 W9        30.10F
MONTICELLO     SUNNY     73  46  38 W7        30.12F
$$

NYZ026>034-041>043-087-251600-
NORTH


CITY           SKY/WX    TMP DP  RH WIND       PRES   REMARKS
WATERTOWN      CLOUDY    72  45  37 SW12G21   30.01S
FORT DRUM      NOT AVBL
MASSENA        CLOUDY    71  49  45 SW8       29.97F
SARANAC LAKE   SUNNY     77  40  26 SW13      30.00F
PLATTSBURGH    CLOUDY    72  53  51 SE10      29.93F
$$

NYZ001>004-010>016-019>021-085-251600-
WEST


CITY           SKY/WX    TMP DP  RH WIND       PRES   REMARKS
NIAGARA FALLS  PTSUNNY   72  52  49 SW10      30.05R
BUFFALO        PTSUNNY   72  48  42 SW24G31   30.07R
DUNKIRK        SUNNY     77  49  37 SW17G23   30.09S
JAMESTOWN      SUNNY     73  48  40 SW8       30.15R
WELLSVILLE     SUNNY     76  46  34 SW8       30.16R
ROCHESTER      CLOUDY    79  50  36 W9        30.04S
PENN YAN       SUNNY     82  48  30 W8        30.06F
$$

             KEY
       WCI = WIND CHILL INDEX
       VSB = VISIBILITY
       HX  = HEAT INDEX
$$




USA.gov is the U.S. government's official web portal to all federal, state and local government web resources and services.